Regional Weather Roundup
Issued by NWS

Home | Current Version | Previous Version | Text Only | Print | Product List | Glossary On
Versions: 1 2 3 4 5 6 7 8 9 10 11 12 13 14 15 16 17 18 19 20 21 22 23 24 25 26 27 28 29 30 31 32 33 34 35 36 37 38 39 40 41 42 43
000
ASUS46 KSEW 290810
RWRWA

WASHINGTON REGIONAL WEATHER ROUNDUP
NATIONAL WEATHER SERVICE SEATTLE WA
1200 AM PST THU JAN 29 2015

NOTE:"FAIR" INDICATES FEW OR NO CLOUDS BELOW 12,000 FEET WITH NO
SIGNIFICANT WEATHER AND/OR OBSTRUCTIONS TO VISIBILITY.

WAZ505-507>509-290900-
SEATTLE, TACOMA, EVERETT, AND VICINITY

CITY           SKY/WX    TMP DP  RH WIND       PRES   REMARKS
EVERETT        FOG       41  39  93 N3        30.38R VSB 3/4
BOEING FIELD   PTCLDY    47  40  76 CALM      30.37S
RENTON         MOCLDY    44  43  96 N3        30.37S
SEATAC AIRPORT PTCLDY    43  40  89 N8        30.37R
JBLM-MCCHORD   CLOUDY    37  37 100 CALM      30.36S
PUYALLUP       DRIZZLE   41  41 100 CALM      30.36R
BREMERTON        N/A     34  34 100 CALM      30.39S
JBLM-FT LEWIS  CLOUDY    36  36  99 SE2       30.35S FOG
TACOMA NARROWS PTCLDY    44  41  89 N5        30.36R
$$

WAZ001-503-506-510-514-515-290900-
NORTH INTERIOR

CITY           SKY/WX    TMP DP  RH WIND       PRES   REMARKS
BELLINGHAM     CLEAR     36  33  89 N3        30.39S
FRIDAY HARBOR  CLEAR     42  40  92 CALM      30.40S
EASTSOUND      CLEAR     41  41 100 CALM      30.38F
PORT ANGELES   CLOUDY    37  35  92 MISG      30.39S
NAS WHIDBEY    PTCLDY    41  38  89 E3        30.40S FOG
ARLINGTON      MOCLDY    36  32  87 NW5       30.40S
BURLINGTON     PTCLDY    39 N/A N/A NW5       30.41S
$$

WAZ020-022-039-040-504-511-512-290900-
SOUTHWEST INTERIOR

CITY           SKY/WX    TMP DP  RH WIND       PRES   REMARKS
SHELTON        CLOUDY    42  40  92 N3        30.34S
OLYMPIA        FOG       36  36 100 CALM      30.36S VSB 1/4
CHEHALIS       CLOUDY    43  43 100 CALM      30.36S FOG
KELSO          CLOUDY    43  39  87 CALM      30.38S
VANCOUVER      MOCLDY    45  41  86 CALM      30.33S
SCAPPOOSE, OR  CLOUDY    44  43  96 CALM      30.32S
PORTLAND, OR   CLOUDY    45  43  93 E3        30.34R
$$

WAZ021-516-517-290900-
WASHINGTON COAST

CITY           SKY/WX    TMP DP  RH WIND       PRES   REMARKS
FORKS          CLOUDY    44  41  89 CALM      30.34S
HOQUIAM        MOCLDY    46  44  93 NE12      30.33F
ASTORIA, OR    CLOUDY    47  45  93 CALM      30.31S
$$

WAZ019-023-024-040-518-519-290900-
CASCADE MOUNTAINS AND COLUMBIA GORGE

CITY           SKY/WX    TMP DP  RH WIND       PRES   REMARKS
TROUTDALE, OR  MOCLDY    47  38  71 E22G35    30.31S
THE DALLES, OR CLOUDY    41  37  86 E7        30.49R
$$

WAZ026-027-041>044-520-521-290900-
EAST SLOPES

CITY           SKY/WX    TMP DP  RH WIND       PRES   REMARKS
OMAK           CLOUDY    33  30  88 SW3       30.50S
WENATCHEE      CLOUDY    35  30  82 CALM      30.49S
ELLENSBURG     FOG       31  29  92 SE3       30.44R VSB 1/4
YAKIMA         CLOUDY    36  34  92 CALM      30.48R FOG
$$

WAZ028-034-035-290900-
COLUMBIA BASIN

CITY           SKY/WX    TMP DP  RH WIND       PRES   REMARKS
EPHRATA        CLOUDY    37  34  89 N12       30.46S
MOSES LAKE     CLOUDY    37  34  89 N9        30.47S
PASCO          CLOUDY    38  35  89 NW8       30.50S
HERMISTON, OR  CLOUDY    38  35  89 NE6       30.47S
$$

WAZ036>038-290900-
NORTHEAST WASHINGTON

CITY           SKY/WX    TMP DP  RH WIND       PRES   REMARKS
SPOKANE GEIGER FOG       33  33 100 NE8       30.43S VSB 1/8
SPOKANE FELTS  CLOUDY    35  34  96 CALM      30.46S FOG
FAIRCHILD AFB  FOG       32  32 100 NE5       30.42S VSB 1/2
COEURDALENE,ID CLOUDY    34  32  93 NE9       30.44R VSB 1/2
DEER PARK      CLEAR     23  21  92 NW5       30.45S
$$

WAZ029>033-290900-
SOUTHEAST WASHINGTON

CITY           SKY/WX    TMP DP  RH WIND       PRES   REMARKS
PULLMAN        CLEAR     35  31  85 NE3       30.41F
LEWISTON, ID   MOCLDY    36  35  96 CALM      30.43F
WALLA WALLA    FOG       36  35  96 SW5       30.45S VSB 3/4
PENDLETON, OR  CLOUDY    35  34  96 N7        30.43S FOG
$$


USA.gov is the U.S. government's official web portal to all federal, state and local government web resources and services.